Hlavní strana
METAR-TAF:

METAR-TAF

Letiště :

Sanford-Lee County Regional Airport

Sanford, Severní Karolína, Spojené státy americké

zeměpisná šířka: 35-34-57N, zeměpisná délka: 079-06-05W, výška: 75 m

Aktuální stav počasí

Zpráva byla vytvořena před 24 minutami, v 03:55 UTC
Severní vítr 4 kt
Teplota 9°C
Vlhkost vzduchu 66%
Tlak 1025 hPa
Viditelnost: 16.1 km
Jasno

METAR: KTTA 310355Z AUTO 35004KT 10SM CLR 09/03 A3028 RMK AO2 T00900025

Čas: 00:19 (04:19 UTC)


TAF: chybějící

Stav a předpovědi počasí z více než 4 000 letišť (zprávy METAR a TAF).

Červené a žluté tečky na mapě představují dostupné meteorologické stanice.

Když kurzor umístíte na tečku, zobrazí se název stanice.

Pak kliknutím zobrazíte stav a předpověď počasí.

Chcete-li změnit mapu, kliknutím na zelené tlačítko se znaménkem +mapu přiblížíte, kliknutím na zelené tlačítko se znaménkem – mapu oddálíte a kliknutím na zelené šipky přejdete na sousední mapy.


METAR-TAF: